Content
SEND FEEDBACK

Daily
Averages
Monthly
Summary
United States of America

PFLUGERVILLE, TEXAS


Home > North America > United States > Texas
Elevation: 680 feet     Latitude: 30 26N     Longitude: 097 37W

WEATHER
 
SELECT A DAY
Number of Records: 122,629;   Date Range: 7/22/09 - 9/30/14
 
SHARE

PRINT THIS DATA

[ ← Previous Day ]
WEATHER ALMANAC - FEBRUARY 13, 2013
[ Next Day → ]
[ °C ]   °F
Weather ElementAverageHighLow
Temperature48.4 °F60.8 °F (3:15 pm)39.2 °F (6:55 am)
Dewpoint33.5 °F37.4 °F (8:15 pm)28.4 °F (5:35 pm)
Humidity58.7 %81 % (11:35 pm)31 % (3:55 pm)
Barometer30.10 in30.17 in (9:15 am)30.04 in (4:55 pm)
Wind Speed10.8 mph23 mph (3:55 am)
Wind Gust28.8 mph (12:35 am)
Weather ElementAverage
Visibility10 mi
Wind DirectionWSW (241.5 °)

Weather ElementTotal
Precipitation---
Heating Degree Days15 (Base 65)
Averaged from 71 records on February 13, 2013
WEATHER CONDITIONS BREAKOUT
WIND DIRECTION BREAKOUT
WEATHER BY HOUR - FEBRUARY 13, 2013
[ °C ]   °F
Local TimeTemperatureDewpointHumidityBarometerVisibilityWind DirectionWind SpeedGust SpeedPrecipitationEventsConditions
12:35 AM46.4 °F35.6 °F66 %30.06 in10.0 miNNW (330°)19.6 mph28.8 mphClear
12:55 AM44.6 °F35.6 °F71 %30.07 in10.0 miNNW (330°)16.1 mph24.2 mphClear
1:15 AM44.6 °F35.6 °F71 %30.07 in10.0 miNNW (330°)17.3 mphClear
1:35 AM44.6 °F33.8 °F66 %30.09 in10.0 miNNW (330°)13.8 mphClear
1:55 AM42.8 °F33.8 °F70 %30.10 in10.0 miNW (320°)12.7 mphClear
2:15 AM42.8 °F33.8 °F70 %30.09 in10.0 miNNW (330°)17.3 mphClear
2:35 AM44.6 °F33.8 °F66 %30.10 in10.0 miNW (320°)15.0 mph20.7 mphClear
2:55 AM42.8 °F32.0 °F66 %30.09 in10.0 miNNW (330°)20.7 mph26.5 mphClear
3:15 AM42.8 °F32.0 °F66 %30.09 in10.0 miNW (320°)19.6 mph25.3 mphClear
3:35 AM41.0 °F32.0 °F70 %30.08 in10.0 miNNW (330°)19.6 mph26.5 mphClear
3:55 AM41.0 °F32.0 °F70 %30.08 in10.0 miNNW (330°)23.0 mph28.8 mphClear
4:15 AM41.0 °F32.0 °F70 %30.09 in10.0 miNNW (330°)17.3 mph26.5 mphClear
4:35 AM41.0 °F32.0 °F70 %30.10 in10.0 miNNW (330°)17.3 mph21.9 mphClear
4:55 AM41.0 °F32.0 °F70 %30.10 in10.0 miNW (320°)13.8 mphClear
5:15 AM41.0 °F32.0 °F70 %30.10 in10.0 miNNW (340°)16.1 mph20.7 mphClear
5:35 AM41.0 °F32.0 °F70 %30.10 in10.0 miNNW (340°)17.3 mph23.0 mphClear
5:55 AM41.0 °F32.0 °F70 %30.10 in10.0 miNNW (340°)15.0 mph23.0 mphClear
6:15 AM41.0 °F32.0 °F70 %30.11 in10.0 miNNW (340°)16.1 mph20.7 mphClear
6:35 AM41.0 °F32.0 °F70 %30.12 in10.0 miNNW (330°)13.8 mphClear
6:55 AM39.2 °F32.0 °F75 %30.13 in10.0 miNNW (330°)10.4 mphClear
7:15 AM39.2 °F32.0 °F75 %30.14 in10.0 miNNW (330°)9.2 mphClear
7:35 AM39.2 °F32.0 °F75 %30.15 in10.0 miNorth (350°)5.8 mphClear
7:55 AM41.0 °F33.8 °F76 %30.15 in10.0 miNNW (340°)8.1 mphClear
8:15 AM41.0 °F33.8 °F76 %30.15 in10.0 miNNW (340°)13.8 mphClear
8:35 AM41.0 °F33.8 °F76 %30.15 in10.0 miNNW (340°)16.1 mph19.6 mphClear
8:55 AM44.6 °F33.8 °F66 %30.16 in10.0 miNNW (340°)15.0 mphClear
9:15 AM44.6 °F33.8 °F66 %30.17 in10.0 miNNW (330°)11.5 mphClear
9:35 AM46.4 °F33.8 °F62 %30.16 in10.0 miNorth (350°)16.1 mphClear
9:55 AM48.2 °F33.8 °F58 %30.16 in10.0 miNNW (340°)18.4 mphClear
10:15 AM50.0 °F33.8 °F54 %30.17 in10.0 miNNW (340°)12.7 mph20.7 mphClear
10:35 AM50.0 °F33.8 °F54 %30.16 in10.0 miNorth (360°)16.1 mphClear
10:55 AM51.8 °F33.8 °F50 %30.16 in10.0 miNNW (340°)13.8 mph19.6 mphClear
11:15 AM51.8 °F33.8 °F50 %30.16 in10.0 miNorth (350°)13.8 mphClear
11:35 AM53.6 °F33.8 °F47 %30.15 in10.0 miNNW (340°)15.0 mphClear
11:55 AM53.6 °F35.6 °F51 %30.15 in10.0 miNorth (360°)12.7 mphClear
12:15 PM55.4 °F35.6 °F47 %30.14 in10.0 miNorth (350°)13.8 mph17.3 mphClear
12:35 PM55.4 °F35.6 °F47 %30.13 in10.0 miNorth (350°)10.4 mphClear
12:55 PM55.4 °F35.6 °F47 %30.12 in10.0 miNorth (10°)11.5 mph17.3 mphClear
1:15 PM57.2 °F35.6 °F44 %30.11 in10.0 miNorth (350°)4.6 mphClear
1:35 PM57.2 °F33.8 °F41 %30.10 in10.0 miNNW (340°)8.1 mphClear
1:55 PM57.2 °F33.8 °F41 %30.08 in10.0 miNorth (10°)9.2 mphClear
2:15 PM59.0 °F33.8 °F39 %30.08 in10.0 miNorth (360°)15.0 mphClear
2:35 PM59.0 °F32.0 °F36 %30.07 in10.0 miNorth (360°)10.4 mphClear
2:55 PM59.0 °F33.8 °F39 %30.06 in10.0 miNNE (20°)8.1 mphClear
3:15 PM60.8 °F32.0 °F34 %30.06 in10.0 miNorth (350°)8.1 mphClear
3:35 PM59.0 °F32.0 °F36 %30.05 in10.0 miNW (310°)9.2 mphClear
3:55 PM60.8 °F30.2 °F31 %30.05 in10.0 miNorth (350°)9.2 mphClear
4:15 PM59.0 °F30.2 °F34 %30.05 in10.0 miNNE (30°)8.1 mphClear
4:35 PM60.8 °F30.2 °F31 %30.05 in10.0 miNorth (360°)8.1 mphClear
4:55 PM59.0 °F30.2 °F34 %30.04 in10.0 miNorth (360°)9.2 mphClear
5:15 PM59.0 °F30.2 °F34 %30.05 in10.0 miNorth (360°)5.8 mphClear
5:35 PM59.0 °F28.4 °F31 %30.04 in10.0 miNorth (10°)9.2 mphClear
5:55 PM57.2 °F28.4 °F33 %30.05 in10.0 miNNE (30°)6.9 mphClear
6:15 PM55.4 °F30.2 °F38 %30.05 in10.0 miNNE (20°)5.8 mphClear
6:35 PM53.6 °F32.0 °F44 %30.06 in10.0 miEast (90°)5.8 mphClear
6:55 PM51.8 °F32.0 °F47 %30.06 in10.0 miCalmClear
7:15 PM50.0 °F35.6 °F58 %30.06 in10.0 miEast (80°)5.8 mphClear
7:35 PM48.2 °F35.6 °F62 %30.07 in10.0 miEast (80°)6.9 mphClear
7:55 PM48.2 °F35.6 °F62 %30.07 in10.0 miEast (80°)6.9 mphClear
8:15 PM48.2 °F37.4 °F66 %30.08 in10.0 miEast (90°)5.8 mphClear
8:35 PM46.4 °F35.6 °F66 %30.08 in10.0 miCalmClear
8:55 PM46.4 °F37.4 °F71 %30.08 in10.0 miEast (80°)4.6 mphClear
9:15 PM46.4 °F35.6 °F66 %30.09 in10.0 miEast (80°)4.6 mphClear
9:35 PM46.4 °F37.4 °F71 %30.09 in10.0 miENE (70°)3.5 mphClear
9:55 PM46.4 °F35.6 °F66 %30.09 in10.0 miCalmClear
10:15 PM44.6 °F35.6 °F71 %30.09 in10.0 miENE (60°)4.6 mphClear
10:35 PM44.6 °F35.6 °F71 %30.10 in10.0 miNE (50°)4.6 mphClear
10:55 PM44.6 °F35.6 °F71 %30.09 in10.0 miENE (70°)3.5 mphClear
11:15 PM44.6 °F35.6 °F71 %30.10 in10.0 miCalmClear
11:35 PM41.0 °F35.6 °F81 %30.10 in10.0 miCalmClear
11:55 PM39.2 °F33.8 °F81 %30.10 in10.0 miWSW (240°)6.9 mphClear
Hourly data recorded from KEDC, located miles away from Pflugerville, Texas







STORIES FROM OUR PARTNERS